Back to catalog

SL-6 R/B(2)

AliveHEO
NORAD 16106·ROCKET BODY·🇷🇺 Russia

Launched Sep 30, 1985 from Plesetsk Cosmodrome

Loading…

Next Passes (next 24 hours)

TLE

FreshSource: Space-Track

Epoch: Sep 13, 2026, 12:54 UTC

1 16106U 85088D   26256.53761610 -.00000616  00000-0  00000-0 0  9997
2 16106  65.0326 124.3335 6849576  29.4773 356.0737  2.04649986305890

Track SL-6 R/B(2) in real time with AllMySat

Download on the App Store